Regional Weather Roundup
Issued by NWS Raleigh/Durham, NC

Home | Current Version | Previous Version | Text Only | Print | Product List | Glossary On
Versions: 1 2 3 4 5 6 7 8 9 10 11 12 13 14 15 16 17 18 19 20 21 22 23 24 25 26 27 28 29 30 31 32 33 34 35 36 37 38 39 40 41 42 43 44 45 46 47 48 49 50
000
ASUS42 KRAH 021710
RWRRAH
NORTH CAROLINA WEATHER ROUNDUP
NATIONAL WEATHER SERVICE RALEIGH NC
100 PM EDT THU OCT 02 2014

NOTE: "FAIR" INDICATES FEW OR NO CLOUDS BELOW 12,000 FEET WITH NO
SIGNIFICANT WEATHER AND/OR OBSTRUCTIONS TO VISIBILITY.

NCZ001-053-055-056-065-067-021800-
WESTERN NORTH CAROLINA

CITY           SKY/WX    TMP DP  RH WIND       PRES   REMARKS
ASHEVILLE      PTSUNNY   76  57  51 CALM      30.17F
JEFFERSON      SUNNY     73  42  33 W3        30.19F
MORGANTON      SUNNY     78  62  56 S3        30.16F
HICKORY        SUNNY     78  65  63 CALM      30.12F
RUTHERFORDTON  SUNNY     80  62  54 CALM      30.12F
MOUNT AIRY     MOSUNNY   71  66  84 SE3       30.15F
BOONE          MOSUNNY   72  48  41 W9        30.20F
$$

NCZ021-022-025-041-071-084-088-021800-
CENTRAL NORTH CAROLINA

CITY           SKY/WX    TMP DP  RH WIND       PRES   REMARKS
CHARLOTTE      MOSUNNY   81  62  52 S7        30.11F
GREENSBORO     MOSUNNY   78  66  66 S3        30.11F
WINSTON-SALEM  SUNNY     75  65  70 NW5       30.13F
RALEIGH-DURHAM MOSUNNY   79  64  60 CALM      30.10F
FORT BRAGG     MOSUNNY   80  65  59 VRB2      30.09F
FAYETTEVILLE   MOSUNNY   83  65  54 SW9       30.09F
BURLINGTON     PTSUNNY   77  63  61 VRB5      30.10F
LAURINBURG     CLOUDY    83  66  56 VRB7      30.10F
$$

NCZ011-015-027-028-043-044-047-080-103-021800-
NORTHEASTERN NORTH CAROLINA

CITY           SKY/WX    TMP DP  RH WIND       PRES   REMARKS
ROCKY MT-WILSO MOSUNNY   78  64  61 W3        30.10F
GREENVILLE     MOSUNNY   77  64  65 NE3       30.11F
WASHINGTON     MOSUNNY   76  65  69 CALM      30.11S
ELIZABETH CITY PTSUNNY   75  62  64 N7        30.11S
MANTEO         SUNNY     73  62  67 NE9       30.11S
CAPE HATTERAS  MOSUNNY   74  63  68 NE8       30.10S
$$

NCZ078-087-090-091-093-098-101-021800-
SOUTHEASTERN NORTH CAROLINA

CITY           SKY/WX    TMP DP  RH WIND       PRES   REMARKS
LUMBERTON      SUNNY     82  64  54 VRB6      30.09F
GOLDSBORO      MOSUNNY   78  70  74 CALM      30.08F
KENANSVILLE    MOSUNNY   79  64  60 W3        30.10F
NEW BERN       MOSUNNY   80  65  59 CALM      30.10F
CHERRY POINT   MOSUNNY   80  64  58 N9        30.10F
BEAUFORT       MOSUNNY   79  65  62 NW5       30.10F
JACKSONVILLE   PTSUNNY   80  65  59 N7        30.08F
WILMINGTON     PTSUNNY   80  66  62 NE3       30.09F
$$




USA.gov is the U.S. government's official web portal to all federal, state and local government web resources and services.